Torna al catalogo

DMSP 5D-2 F13 DEB

AttivoSSO
NORAD 40568·DEBRIS·🇺🇸 United States

Lanciato Mar 24, 1995 da Vandenberg Space Force Base

Loading…

Prossimi Passaggi (prossime 24 ore)

TLE

AggiornatoSource: Space-Track

Epoca: Sep 14, 2026, 01:45 UTC

1 40568U 95015EB  26257.07321065  .00002862  00000-0  97340-3 0  9993
2 40568  98.8332 294.2130 0026113 269.3375  90.4819 14.37187168593056

Traccia DMSP 5D-2 F13 DEB in tempo reale con AllMySat

Download on the App Store